Location: Prairie State College
(41.5244°N, 87.6382°W)
Time: 08:26:26
(UTC-05:00)

ARGOS Delta rocket - Visible Passes

Search period start: 22 September 2017 00:00
Search period end: 02 October 2017 00:00
Orbit: 636 x 838 km, 96.5° (Epoch: 21 September)

Date Brightness Start Highest point End Pass type
(mag) Time Alt. Az. Time Alt. Az. Time Alt. Az.
22 Sep 6.8 22:47:44 10° N 22:48:11 12° N 22:48:11 12° N visible
23 Sep 7.1 23:42:12 10° NNW 23:42:14 10° NNW 23:42:14 10° NNW visible
24 Sep 6.9 22:56:23 10° N 22:56:39 11° N 22:56:39 11° N visible
26 Sep 7.0 23:05:05 10° N 23:05:07 10° N 23:05:07 10° N visible
